EDT,Max TemperatureF,Mean TemperatureF,Min TemperatureF,Max Dew PointF,MeanDew PointF,Min DewpointF,Max Humidity, Mean Humidity, Min Humidity, Max Sea Level PressureIn, Mean Sea Level PressureIn, Min Sea Level PressureIn, Max VisibilityMiles, Mean VisibilityMiles, Min VisibilityMiles, Max Wind SpeedMPH, Mean Wind SpeedMPH, Max Gust SpeedMPH,PrecipitationIn, CloudCover, Events, WindDirDegrees
2013-6-1,86,76,69,65,63,61,83,63,46,30.17,30.10,30.02,10,10,10,10,7,17,0.00,4,,202
2013-6-2,75,70,66,70,67,63,94,86,67,30.05,29.98,29.92,10,8,0,12,6,17,0.98,7,Fog-Rain-Thunderstorm,200
2013-6-3,84,74,66,70,66,64,94,80,54,29.98,29.92,29.86,10,10,10,9,4,,0.00,5,Rain-Thunderstorm,243
2013-6-4,84,74,66,70,64,61,90,70,49,30.06,30.00,29.94,10,10,10,12,6,,0.00,3,,42
2013-6-5,82,74,66,70,66,64,94,81,64,30.09,30.03,29.97,10,8,1,17,8,24,0.76,7,Rain-Thunderstorm,77
2013-6-6,77,70,64,70,67,62,94,89,78,30.02,29.89,29.81,10,7,1,14,6,21,0.91,8,Rain,234
2013-6-7,84,75,68,70,67,66,94,84,61,29.81,29.73,29.68,10,10,8,22,6,28,0.49,6,Rain-Thunderstorm,296
2013-6-8,84,74,66,67,65,63,94,77,52,30.09,30.03,29.99,10,10,9,13,3,18,0.00,5,,233
2013-6-9,86,76,69,70,68,66,94,85,56,30.16,30.10,30.06,10,7,0,24,4,31,1.25,6,Fog-Rain-Thunderstorm,140
2013-6-10,79,72,68,70,67,64,94,85,69,30.07,30.01,29.94,10,9,0,22,10,31,0.56,6,Fog-Rain,209
2013-6-11,90,80,69,70,66,57,94,73,33,30.04,29.98,29.93,10,10,2,13,7,17,0.23,5,Rain,241
2013-6-12,91,80,68,73,68,64,87,65,42,30.03,29.98,29.93,10,10,10,12,3,,0.00,0,,251
2013-6-13,93,82,72,72,69,66,89,69,44,29.91,29.81,29.73,10,10,10,18,10,33,0.03,1,Rain-Thunderstorm,253
2013-6-14,86,76,66,65,55,50,78,49,31,30.04,29.91,29.81,10,10,10,17,7,21,0.00,0,,7
2013-6-15,84,74,63,60,56,52,75,51,39,30.15,30.10,30.05,10,10,10,9,4,,0.00,1,,208
2013-6-16,86,76,66,66,62,59,84,63,41,30.17,30.09,30.03,10,10,10,12,5,16,0.00,0,,219
2013-6-17,84,76,69,72,68,66,94,81,63,30.09,30.02,29.96,10,9,1,21,7,31,0.74,5,Rain-Thunderstorm,247
2013-6-18,84,76,69,73,69,66,94,86,60,30.00,29.90,29.81,10,8,0,16,6,26,1.04,7,Fog-Rain-Thunderstorm,236
2013-6-19,82,76,69,65,64,62,87,70,51,30.11,30.00,29.91,10,10,9,12,7,,0.05,3,Rain,45
2013-6-20,84,74,66,66,64,62,87,70,49,30.25,30.19,30.10,10,10,10,12,7,17,0.00,3,,60
2013-6-21,84,75,66,63,61,58,87,62,41,30.27,30.22,30.17,10,10,10,12,5,,0.00,2,,49
2013-6-22,86,75,66,63,61,58,81,60,41,30.24,30.18,30.12,10,10,10,10,6,,0.00,1,,36
2013-6-23,86,78,69,69,67,64,94,75,51,30.22,30.18,30.12,10,9,2,13,2,18,0.12,4,Rain-Thunderstorm,116
2013-6-24,88,78,69,72,69,66,94,79,51,30.26,30.20,30.11,10,10,8,14,4,20,0.03,4,Rain-Thunderstorm,213
2013-6-25,89,80,71,70,68,65,94,76,48,30.19,30.12,30.04,10,10,10,15,5,22,0.00,3,,214
2013-6-26,90,80,71,72,70,67,94,74,53,30.08,30.00,29.94,10,10,10,10,6,17,0.00,2,Rain-Thunderstorm,230
2013-6-27,89,80,71,75,71,66,94,78,55,29.99,29.87,29.76,10,8,2,21,7,26,0.35,3,Rain-Thunderstorm,238
2013-6-28,93,82,72,71,68,64,87,66,41,29.80,29.71,29.61,10,10,10,13,6,20,0.00,1,Thunderstorm,250
2013-6-29,88,80,71,70,67,62,94,74,43,29.73,29.68,29.64,10,10,10,14,6,20,0.00,3,,221
2013-6-30,84,76,70,71,67,63,87,78,51,29.87,29.78,29.70,10,10,10,12,5,,0.00,5,Rain,178